GW5597 Weather Reports


time (UTC)temp
F
wind
direction
speed
knots
gust
knots
rain 1hr
in
rain 24hr
in
rain mn
in
humidity
%
barometer
mb
20260508024348 68 345 0.0 1.7 0.00 0.00 0.00 45 1015.1
20260508023849 68 0 0.0 1.7 0.00 0.00 0.00 46 1015.1
20260508023348 68 307 0.0 1.7 0.00 0.00 0.00 47 1015.2
20260508022848 68 0 0.0 1.7 0.00 0.00 0.00 47 1015.2
20260508022348 69 0 0.0 1.7 0.00 0.00 0.00 47 1015.2
20260508021845 69 0 0.0 1.7 0.00 0.00 0.00 44 1015.2
20260508021605 69 86 0.0 1.7 0.00 0.00 0.00 41 1015.1
20260508021108 69 0 0.0 0.9 0.00 0.00 0.00 41 1015.2
20260508020346 70 67 0.0 1.7 0.00 0.00 0.00 42 1015.2
20260508015845 70 125 0.9 1.7 0.00 0.00 0.00 40 1015.3
20260508015346 70 324 0.9 2.6 0.00 0.00 0.00 40 1015.4
20260508015110 70 302 0.9 2.6 0.00 0.00 0.00 40 1015.4
20260508014345 70 22 0.9 1.7 0.00 0.00 0.00 39 1015.4
20260508013841 70 305 0.9 2.6 0.00 0.00 0.00 39 1015.5
20260508013341 70 0 0.9 2.6 0.00 0.00 0.00 39 1015.5
20260508012838 70 89 0.9 2.6 0.00 0.00 0.00 39 1015.5
20260508012821 70 76 0.9 2.6 0.00 0.00 0.00 39 1015.5
20260508011838 70 79 0.9 2.6 0.00 0.00 0.00 39 1015.5
20260508011339 70 329 0.9 2.6 0.00 0.00 0.00 38 1015.5
20260508010838 71 33 0.9 2.6 0.00 0.00 0.00 38 1015.6
20260508010338 71 34 0.9 3.5 0.00 0.00 0.00 38 1015.7
20260508005837 71 0 0.9 3.5 0.00 0.00 0.00 37 1015.8
20260508005338 71 53 0.9 2.6 0.00 0.00 0.00 38 1015.8
20260508005056 71 1 0.9 3.5 0.00 0.00 0.00 38 1015.9
20260508004339 71 0 0.9 3.5 0.00 0.00 0.00 37 1015.8
20260508004059 70 49 1.7 3.5 0.00 0.00 0.00 37 1015.9
20260508003340 70 331 1.7 3.5 0.00 0.00 0.00 38 1016.0
20260508002840 70 34 1.7 3.5 0.00 0.00 0.00 38 1016.0
20260508002340 70 303 1.7 3.5 0.00 0.00 0.00 37 1015.9
20260508001842 70 324 1.7 3.5 0.00 0.00 0.00 40 1016.0
20260508001342 70 321 1.7 4.3 0.00 0.00 0.00 38 1016.0
20260508000343 70 345 1.7 3.5 0.00 0.00 0.00 38 1016.1
20260507234340 71 334 0.9 2.6 0.00 0.00 0.00 40 1016.2
20260507233841 71 321 0.9 2.6 0.00 0.00 0.00 39 1016.2
20260507233335 71 255 0.9 2.6 0.00 0.00 0.00 41 1016.3
20260507233058 71 65 1.7 2.6 0.00 0.00 0.00 41 1016.4
20260507232331 71 358 0.9 2.6 0.00 0.00 0.00 41 1016.4
20260507231831 71 339 0.9 2.6 0.00 0.00 0.00 41 1016.4
20260507231330 70 278 0.9 2.6 0.00 0.00 0.00 44 1016.5
20260507230831 69 15 0.9 4.3 0.00 0.00 0.00 46 1016.6
20260507230332 69 38 1.7 4.3 0.00 0.00 0.00 44 1016.6
20260507230101 69 76 1.7 3.5 0.00 0.00 0.00 46 1016.7
20260507224831 69 179 1.7 3.5 0.00 0.00 0.00 46 1016.9
20260507224328 69 338 1.7 3.5 0.00 0.00 0.00 45 1016.9
20260507223828 69 332 1.7 4.3 0.00 0.00 0.00 46 1016.9
20260507223329 70 313 1.7 4.3 0.00 0.00 0.00 44 1016.9
20260507222828 70 347 1.7 4.3 0.00 0.00 0.00 42 1017.0
20260507222328 70 327 1.7 3.5 0.00 0.00 0.00 45 1017.1
20260507221828 70 20 1.7 3.5 0.00 0.00 0.00 46 1017.2
20260507221329 70 48 0.9 3.5 0.00 0.00 0.00 47 1017.2
20260507220829 70 3 0.9 3.5 0.00 0.00 0.00 47 1017.3
20260507220546 70 0 1.7 3.5 0.00 0.00 0.00 46 1017.3
20260507215829 70 128 1.7 3.5 0.00 0.00 0.00 44 1017.4
20260507215329 70 226 0.9 2.6 0.00 0.00 0.00 44 1017.5
20260507214827 70 197 0.9 2.6 0.00 0.00 0.00 43 1017.6
20260507214327 69 292 1.7 3.5 0.00 0.00 0.00 42 1017.6
20260507213827 69 332 1.7 3.5 0.00 0.00 0.00 43 1017.6
20260507213326 69 319 0.9 2.6 0.00 0.00 0.00 43 1017.7
20260507212827 69 274 0.9 5.2 0.00 0.00 0.00 42 1017.7
20260507212327 69 290 0.9 5.2 0.00 0.00 0.00 44 1017.8
20260507211827 69 204 0.9 2.6 0.00 0.00 0.00 42 1017.9
20260507211327 68 144 0.9 3.5 0.00 0.00 0.00 45 1017.9
20260507210827 68 333 1.7 3.5 0.00 0.00 0.00 44 1018.0
20260507210817 69 326 1.7 3.5 0.00 0.00 0.00 45 1018.1
20260507205827 69 318 0.9 3.5 0.00 0.00 0.00 43 1018.1
20260507205326 69 259 0.9 2.6 0.00 0.00 0.00 42 1018.2
20260507205047 68 151 0.9 2.6 0.00 0.00 0.00 44 1018.3
20260507204325 67 317 0.9 2.6 0.00 0.00 0.00 47 1018.3
20260507203821 68 293 0.9 2.6 0.00 0.00 0.00 47 1018.3
20260507203322 67 197 0.9 2.6 0.00 0.00 0.00 47 1018.4
20260507203039 67 290 0.9 2.6 0.00 0.00 0.00 48 1018.5
20260507202322 67 358 0.9 4.3 0.00 0.00 0.00 44 1018.6
20260507201822 67 203 1.7 5.2 0.00 0.00 0.00 45 1018.6
20260507201322 67 23 0.9 5.2 0.00 0.00 0.00 47 1018.7
20260507201057 67 72 0.9 4.3 0.00 0.00 0.00 47 1018.8
20260507200322 66 64 1.7 4.3 0.00 0.00 0.00 49 1018.8
20260507200041 65 198 1.7 4.3 0.00 0.00 0.00 51 1018.8
20260507195320 65 340 1.7 4.3 0.00 0.00 0.00 50 1018.8
20260507194820 65 292 1.7 5.2 0.00 0.00 0.00 49 1018.9
20260507194319 64 172 1.7 5.2 0.00 0.00 0.00 53 1019.1
20260507194308 64 106 0.9 3.5 0.00 0.00 0.00 54 1019.1
20260507193319 64 2 1.7 5.2 0.00 0.00 0.00 53 1019.1
20260507192819 64 46 1.7 5.2 0.00 0.00 0.00 54 1019.2
20260507192319 64 339 1.7 3.5 0.00 0.00 0.00 55 1019.3
20260507191820 63 172 0.9 2.6 0.00 0.00 0.00 55 1019.4
20260507191321 62 67 1.7 3.5 0.00 0.00 0.00 56 1019.4
20260507190819 62 295 1.7 3.5 0.00 0.00 0.00 57 1019.4
20260507190320 62 66 1.7 2.6 0.00 0.00 0.00 58 1019.4
20260507190047 62 46 1.7 3.5 0.00 0.00 0.00 59 1019.5
20260507185547 62 185 0.9 3.5 0.00 0.00 0.00 59 1019.6
20260507184824 61 316 1.7 2.6 0.00 0.00 0.00 58 1019.7
20260507184310 60 104 1.7 3.5 0.00 0.00 0.00 59 1019.7
20260507183809 60 348 2.6 3.5 0.00 0.00 0.00 61 1019.7
20260507183310 59 62 1.7 3.5 0.00 0.00 0.00 62 1019.7
20260507182809 59 332 0.9 2.6 0.00 0.00 0.00 62 1019.7
20260507182310 59 98 1.7 2.6 0.00 0.00 0.00 63 1019.8
20260507181808 58 78 1.7 2.6 0.00 0.00 0.00 64 1019.8
20260507181308 59 295 1.7 2.6 0.00 0.00 0.00 64 1019.9
20260507180809 58 326 1.7 2.6 0.00 0.00 0.00 64 1019.9
20260507180309 58 347 1.7 3.5 0.00 0.00 0.00 63 1020.0
20260507175808 58 82 1.7 3.5 0.00 0.00 0.00 66 1020.0
20260507175309 58 292 1.7 3.5 0.00 0.00 0.00 65 1020.0
20260507174752 57 351 1.7 3.5 0.00 0.00 0.00 66 1020.0
20260507174251 57 301 1.7 2.6 0.00 0.00 0.00 65 1020.1
20260507173751 57 328 1.7 3.5 0.00 0.00 0.00 67 1020.1
20260507173520 56 334 1.7 3.5 0.00 0.00 0.00 67 1020.1
20260507172752 56 294 1.7 3.5 0.00 0.00 0.00 68 1020.2
20260507172251 56 299 1.7 2.6 0.00 0.00 0.00 68 1020.2
20260507171752 56 303 1.7 2.6 0.00 0.00 0.00 69 1020.2
20260507171252 56 323 1.7 2.6 0.00 0.00 0.00 68 1020.2
20260507170752 56 298 1.7 3.5 0.00 0.00 0.00 69 1020.2
20260507165737 55 319 0.9 2.6 0.00 0.00 0.00 70 1020.3
20260507165237 55 294 0.9 2.6 0.00 0.00 0.00 71 1020.2
20260507164737 55 351 0.9 1.7 0.00 0.00 0.00 70 1020.3
20260507164457 54 3 0.9 1.7 0.00 0.00 0.00 72 1020.4
20260507163738 54 330 0.9 2.6 0.00 0.00 0.00 71 1020.4
20260507163238 53 112 1.7 2.6 0.00 0.00 0.00 72 1020.4
20260507162739 53 93 1.7 3.5 0.00 0.00 0.00 73 1020.4
20260507162237 53 304 1.7 3.5 0.00 0.00 0.00 72 1020.4
20260507162003 53 42 1.7 2.6 0.00 0.00 0.00 73 1020.4
20260507161238 53 332 1.7 2.6 0.00 0.00 0.00 73 1020.4
20260507160738 53 313 1.7 2.6 0.00 0.00 0.00 73 1020.4
20260507160239 53 302 1.7 3.5 0.00 0.00 0.00 73 1020.4
20260507155738 53 326 1.7 3.5 0.00 0.00 0.00 74 1020.4
20260507155445 53 312 0.9 2.6 0.00 0.00 0.00 73 1020.4
20260507154724 53 3 0.9 2.6 0.00 0.00 0.00 74 1020.4
20260507154224 52 303 1.7 2.6 0.00 0.00 0.00 74 1020.4
20260507153724 52 312 1.7 3.5 0.00 0.00 0.00 74 1020.5
20260507153224 52 312 1.7 3.5 0.00 0.00 0.00 74 1020.4
20260507152724 52 316 1.7 3.5 0.00 0.00 0.00 75 1020.5
20260507152452 52 306 1.7 3.5 0.00 0.00 0.00 74 1020.4
20260507151949 52 42 1.7 3.5 0.00 0.00 0.00 75 1020.4
20260507151441 52 334 1.7 3.5 0.00 0.00 0.00 74 1020.4
20260507150709 52 57 1.7 3.5 0.00 0.00 0.00 74 1020.4
20260507150209 52 8 1.7 3.5 0.00 0.00 0.00 74 1020.4
20260507145709 52 290 0.9 3.5 0.00 0.00 0.00 75 1020.4
20260507145432 52 310 0.9 2.6 0.00 0.00 0.00 75 1020.4
20260507144709 52 322 0.9 2.6 0.00 0.00 0.00 75 1020.4
20260507144213 52 76 0.9 2.6 0.00 0.00 0.00 76 1020.3
20260507143708 52 6 1.7 2.6 0.00 0.00 0.00 75 1020.3
20260507143209 52 321 1.7 2.6 0.00 0.00 0.00 75 1020.3
20260507142708 52 303 1.7 3.5 0.00 0.00 0.00 75 1020.2
20260507142209 52 355 1.7 3.5 0.00 0.00 0.00 76 1020.3
20260507141708 52 47 0.9 2.6 0.00 0.00 0.00 76 1020.2
20260507141213 52 11 0.9 2.6 0.00 0.00 0.00 77 1020.2
20260507140940 52 67 1.7 2.6 0.00 0.00 0.00 77 1020.2
20260507140155 52 77 0.9 1.7 0.00 0.00 0.00 77 1020.1
20260507135656 52 66 0.9 1.7 0.00 0.00 0.00 77 1020.1
20260507135156 52 0 0.9 1.7 0.00 0.00 0.00 78 1020.0
20260507134908 52 60 0.9 1.7 0.00 0.00 0.00 77 1020.0
20260507134145 52 329 0.9 1.7 0.00 0.00 0.00 77 1020.0
20260507133630 52 289 0.9 1.7 0.00 0.00 0.00 77 1020.0
20260507133113 52 344 0.9 1.7 0.00 0.00 0.00 78 1019.9
20260507132612 52 0 0.9 1.7 0.00 0.00 0.00 78 1019.9
20260507132112 52 23 0.9 1.7 0.00 0.00 0.00 78 1019.9
20260507132054 52 68 0.9 1.7 0.00 0.00 0.00 78 1019.9
20260507131113 52 303 0.9 1.7 0.00 0.00 0.00 77 1019.9
20260507130610 52 328 0.9 1.7 0.00 0.00 0.00 77 1019.9
20260507130333 52 0 0.9 1.7 0.00 0.00 0.00 77 1019.9
20260507125557 52 76 0.0 1.7 0.00 0.00 0.00 78 1019.9
20260507125042 52 288 0.9 1.7 0.00 0.00 0.00 77 1020.0
20260507124542 52 319 0.9 1.7 0.00 0.00 0.00 77 1020.0
20260507124041 52 6 0.9 1.7 0.00 0.00 0.00 77 1019.9
20260507123542 52 288 0.9 1.7 0.00 0.00 0.00 77 1020.0
20260507123041 52 298 0.9 1.7 0.00 0.00 0.00 77 1020.0
20260507122543 52 22 0.9 1.7 0.00 0.00 0.00 77 1020.0
20260507122042 52 5 0.9 1.7 0.00 0.00 0.00 77 1020.0
20260507121800 52 78 0.9 1.7 0.00 0.00 0.00 77 1020.0
20260507121043 52 334 0.9 1.7 0.00 0.00 0.00 77 1020.0
20260507120527 53 291 0.9 1.7 0.00 0.00 0.00 77 1020.0
20260507120027 53 10 0.9 1.7 0.00 0.00 0.00 77 1020.1
20260507115527 53 69 0.9 1.7 0.00 0.00 0.00 77 1020.1
20260507115017 53 1 0.9 1.7 0.00 0.00 0.00 76 1020.1
20260507114742 53 290 0.9 1.7 0.00 0.00 0.00 77 1020.2
20260507114011 53 102 0.9 1.7 0.00 0.00 0.00 77 1020.1
20260507113511 53 30 0.9 1.7 0.00 0.00 0.00 77 1020.2
20260507113012 53 336 0.9 1.7 0.00 0.00 0.00 77 1020.2
20260507112512 53 307 0.9 1.7 0.00 0.00 0.00 77 1020.2
20260507112012 53 321 0.9 1.7 0.00 0.00 0.00 78 1020.2
20260507111515 53 322 0.9 1.7 0.00 0.00 0.00 77 1020.2
20260507111016 53 303 0.9 1.7 0.00 0.00 0.00 78 1020.2
20260507110512 53 337 0.9 1.7 0.00 0.00 0.00 78 1020.2
20260507110012 53 0 0.9 1.7 0.00 0.00 0.00 78 1020.2
20260507105512 53 8 0.9 1.7 0.00 0.00 0.00 78 1020.2
20260507105500 53 0 0.0 1.7 0.00 0.00 0.00 78 1020.3
20260507104459 53 31 0.0 1.7 0.00 0.00 0.00 78 1020.3
20260507103958 53 0 0.9 1.7 0.00 0.00 0.00 78 1020.3
20260507103723 53 63 0.9 1.7 0.00 0.00 0.00 78 1020.4
20260507102959 54 335 0.9 1.7 0.00 0.00 0.00 78 1020.4
20260507102459 54 294 0.9 3.5 0.00 0.00 0.00 78 1020.4
20260507102224 54 316 0.9 3.5 0.00 0.00 0.00 78 1020.4
20260507101500 54 328 0.9 2.6 0.00 0.00 0.00 78 1020.5
20260507101210 54 319 0.9 2.6 0.00 0.00 0.00 78 1020.5
20260507100651 54 339 0.9 1.7 0.00 0.00 0.00 78 1020.5
20260507095930 54 330 0.9 2.6 0.00 0.00 0.00 78 1020.5
20260507095431 54 317 0.9 2.6 0.00 0.00 0.00 79 1020.6
20260507094930 54 17 0.9 2.6 0.00 0.00 0.00 79 1020.6
20260507094429 54 327 0.9 2.6 0.00 0.00 0.00 79 1020.6
20260507093930 54 324 0.9 1.7 0.00 0.00 0.00 78 1020.6
20260507093430 54 92 0.9 1.7 0.00 0.00 0.00 78 1020.7
20260507092930 54 346 0.9 1.7 0.00 0.00 0.00 78 1020.7
20260507092430 54 299 0.0 1.7 0.00 0.00 0.00 77 1020.8
20260507092152 54 108 0.0 1.7 0.00 0.00 0.00 77 1020.8
20260507091430 54 100 0.9 1.7 0.00 0.00 0.00 77 1020.8
20260507090930 55 349 0.9 1.7 0.00 0.00 0.00 77 1020.8
20260507090416 55 9 0.9 2.6 0.00 0.00 0.00 77 1020.8
20260507085916 55 311 1.7 2.6 0.00 0.00 0.00 77 1020.9
20260507085417 55 302 0.9 2.6 0.00 0.00 0.00 76 1020.8
20260507084915 55 318 0.9 1.7 0.00 0.00 0.00 76 1020.8
20260507084635 55 337 0.9 1.7 0.00 0.00 0.00 76 1020.8
20260507083914 55 306 0.9 1.7 0.00 0.00 0.00 76 1020.8
20260507083415 55 6 0.9 1.7 0.00 0.00 0.00 76 1020.8
20260507082914 55 312 0.9 1.7 0.00 0.00 0.00 76 1020.9
20260507082415 55 343 0.9 1.7 0.00 0.00 0.00 77 1020.9
20260507081901 55 302 0.9 2.6 0.00 0.00 0.00 77 1020.9
20260507081621 55 351 0.9 2.6 0.00 0.00 0.00 77 1020.9
20260507080902 55 304 0.9 2.6 0.00 0.00 0.00 77 1020.9
20260507080632 55 352 0.9 2.6 0.00 0.00 0.00 77 1020.8
20260507075905 55 313 0.9 2.6 0.00 0.00 0.00 78 1020.9
20260507075406 55 312 0.9 2.6 0.00 0.00 0.00 78 1020.9
20260507074906 55 334 0.9 2.6 0.00 0.00 0.00 79 1020.9
20260507074406 55 307 0.9 1.7 0.00 0.00 0.00 79 1020.9
20260507073906 55 59 0.9 1.7 0.00 0.00 0.00 79 1020.9
20260507073858 55 298 0.9 1.7 0.00 0.00 0.00 79 1020.9
20260507072906 55 337 0.9 1.7 0.00 0.00 0.00 79 1020.8
20260507072406 55 34 0.9 1.7 0.00 0.00 0.00 79 1020.8
20260507071906 55 285 0.9 2.6 0.00 0.00 0.00 79 1020.8
20260507071352 55 350 0.9 2.6 0.00 0.00 0.00 79 1020.8
20260507071118 55 348 0.9 1.7 0.00 0.00 0.00 79 1020.7
20260507070836 55 298 0.9 1.7 0.00 0.00 0.00 79 1020.7
20260507065834 55 275 0.9 1.7 0.00 0.00 0.00 79 1020.7
20260507065334 55 304 0.9 1.7 0.00 0.00 0.00 78 1020.7
20260507064834 55 338 0.9 1.7 0.00 0.00 0.00 79 1020.7
20260507063334 55 97 1.7 2.6 0.00 0.00 0.00 79 1020.8
20260507062834 55 0 1.7 3.5 0.00 0.00 0.00 79 1020.8
20260507062335 55 313 1.7 3.5 0.00 0.00 0.00 79 1020.8
20260507061818 56 301 0.9 2.6 0.00 0.00 0.00 79 1020.8
20260507061320 56 354 0.9 3.5 0.00 0.00 0.00 80 1020.9
20260507060820 56 317 1.7 3.5 0.00 0.00 0.00 80 1020.9
20260507060320 56 325 1.7 2.6 0.00 0.00 0.00 79 1020.8
20260507055819 56 314 0.9 2.6 0.00 0.00 0.00 79 1020.8
20260507055320 56 299 0.9 2.6 0.00 0.00 0.00 80 1020.9
20260507054821 56 341 1.7 3.5 0.00 0.00 0.00 79 1020.9
20260507054320 56 326 1.7 3.5 0.00 0.00 0.00 79 1020.8
20260507053821 56 301 1.7 3.5 0.00 0.00 0.00 80 1020.8
20260507053321 56 298 1.7 3.5 0.00 0.00 0.00 79 1020.8
20260507052805 56 326 0.9 2.6 0.00 0.00 0.00 79 1020.8
20260507052525 56 312 1.7 2.6 0.00 0.00 0.00 79 1020.8
20260507051750 56 331 1.7 2.6 0.00 0.00 0.00 79 1020.8
20260507051249 56 315 1.7 3.5 0.00 0.00 0.00 79 1020.8
20260507050750 56 42 1.7 3.5 0.00 0.00 0.00 79 1020.8
20260507050250 56 298 1.7 3.5 0.00 0.00 0.00 78 1020.8
20260507045749 57 307 1.7 3.5 0.00 0.00 0.00 78 1020.8
20260507045250 57 4 1.7 2.6 0.00 0.00 0.00 78 1020.8
20260507044750 57 332 1.7 3.5 0.00 0.00 0.00 78 1020.8
20260507044250 57 320 1.7 3.5 0.00 0.00 0.00 77 1020.8
20260507043750 57 314 1.7 3.5 0.00 0.00 0.00 77 1020.8
20260507043250 57 359 1.7 2.6 0.00 0.00 0.00 77 1020.8
20260507042738 57 337 1.7 3.5 0.00 0.00 0.00 77 1020.7
20260507042226 57 310 1.7 3.5 0.00 0.00 0.00 77 1020.6
20260507041726 58 294 1.7 3.5 0.00 0.00 0.00 77 1020.6
20260507041446 58 353 1.7 1.7 0.00 0.00 0.00 76 1020.6
20260507040726 58 332 1.7 2.6 0.00 0.00 0.00 76 1020.5
20260507040227 58 357 1.7 3.5 0.00 0.00 0.00 76 1020.5
20260507035726 58 344 2.6 3.5 0.00 0.00 0.00 76 1020.4
20260507035221 58 334 2.6 4.3 0.00 0.00 0.00 76 1020.4
20260507035202 58 311 2.6 4.3 0.00 0.00 0.00 76 1020.3
20260507034210 59 305 1.7 4.3 0.00 0.00 0.00 75 1020.2
20260507033708 59 355 1.7 2.6 0.00 0.00 0.00 75 1020.1
20260507033207 59 313 1.7 3.5 0.00 0.00 0.00 75 1020.1
20260507032707 59 13 1.7 3.5 0.00 0.00 0.00 76 1020.0
20260507032157 59 316 1.7 3.5 0.00 0.00 0.00 75 1020.0
20260507031657 60 305 1.7 3.5 0.00 0.00 0.00 75 1019.9
20260507031157 60 305 1.7 3.5 0.00 0.00 0.00 75 1019.9
20260507030657 60 321 1.7 4.3 0.00 0.00 0.00 75 1019.8
20260507030158 60 334 1.7 4.3 0.00 0.00 0.00 75 1019.7
20260507025657 61 313 1.7 4.3 0.00 0.00 0.00 75 1019.7
20260507025158 61 343 1.7 3.5 0.00 0.00 0.00 74 1019.6
20260507024657 61 348 1.7 3.5 0.00 0.00 0.00 74 1019.5